Tracking 31027 objects as of 19-Jul-2025
HD Live streaming from Space Station
objects crossing your sky now

JILIN-01 GAOFEN 3J

Track JILIN-01 GAOFEN 3J now!
10-day predictions


NORAD ID: 46462
Int'l Code: 2020-065J
Perigee: 437.2 km
Apogee: 441.8 km
Inclination: 97.3 °
Period: 93.2 minutes
Semi major axis: 6810 km
RCS: Unknown
Launch date: September 15, 2020
Source: People's Republic of China (PRC)
Launch site: Yellow Sea Launch Area, China (YSLA)
Your satellite tracking list
SES-6
Track 1 satellite(s)




NASA's NSSDC Master Catalog

Two Line Element Set (TLE):
1 46462U 20065J   25199.89343028  .00023486  00000-0  50479-3 0  9999
2 46462  97.2809 247.8124 0003325 251.8837 108.2049 15.44665188268316
Source of the keplerian elements: AFSPC